| time (UTC) | temp F | wind direction | speed MPH | gust MPH | rain 1hr in | rain 24hr in | rain mn in | humidity % | barometer mb |
| 20260508221544 | 83 | 84 | 1.0 | 7.0 | 0.00 | 0.00 | 0.00 | 49 | 1020.8 |
| 20260508220046 | 82 | 84 | 1.0 | 4.0 | 0.00 | 0.00 | 0.00 | 49 | 1021.0 |
| 20260508214546 | 82 | 87 | 1.0 | 4.0 | 0.00 | 0.00 | 0.00 | 48 | 1021.3 |
| 20260508213036 | 81 | 87 | 2.0 | 7.0 | 0.00 | 0.00 | 0.00 | 48 | 1021.5 |
| 20260508211536 | 81 | 87 | 1.0 | 6.0 | 0.00 | 0.00 | 0.00 | 48 | 1021.7 |
| 20260508210036 | 80 | 87 | 0.0 | 3.0 | 0.00 | 0.00 | 0.00 | 51 | 1021.9 |
| 20260508204529 | 79 | 87 | 1.0 | 6.0 | 0.00 | 0.00 | 0.00 | 52 | 1022.0 |
| 20260508203028 | 79 | 87 | 1.0 | 4.0 | 0.00 | 0.00 | 0.00 | 53 | 1022.2 |
| 20260508201527 | 79 | 87 | 0.0 | 4.0 | 0.00 | 0.00 | 0.00 | 53 | 1022.3 |
| 20260508200037 | 77 | 87 | 0.0 | 3.0 | 0.00 | 0.00 | 0.00 | 56 | 1022.4 |
| 20260508194521 | 77 | 87 | 0.0 | 3.0 | 0.00 | 0.00 | 0.00 | 56 | 1022.6 |
| 20260508193019 | 76 | 87 | 0.0 | 3.0 | 0.00 | 0.00 | 0.00 | 56 | 1022.8 |
| 20260508191517 | 74 | 87 | 1.0 | 7.0 | 0.00 | 0.00 | 0.00 | 59 | 1022.9 |
| 20260508190012 | 73 | 87 | 0.0 | 6.0 | 0.00 | 0.00 | 0.00 | 60 | 1023.1 |
| 20260508184506 | 71 | 87 | 0.0 | 6.0 | 0.00 | 0.00 | 0.00 | 62 | 1023.3 |
| 20260508183005 | 70 | 87 | 1.0 | 6.0 | 0.00 | 0.00 | 0.00 | 63 | 1023.3 |
| 20260508181607 | 69 | 87 | 0.0 | 7.0 | 0.00 | 0.00 | 0.00 | 65 | 1023.4 |
| 20260508180055 | 68 | 87 | 1.0 | 6.0 | 0.00 | 0.00 | 0.00 | 66 | 1023.4 |
| 20260508174551 | 67 | 87 | 1.0 | 8.0 | 0.00 | 0.00 | 0.00 | 68 | 1023.5 |
| 20260508173049 | 66 | 86 | 2.0 | 7.0 | 0.00 | 0.00 | 0.00 | 69 | 1023.4 |
| 20260508171543 | 65 | 86 | 1.0 | 7.0 | 0.00 | 0.00 | 0.00 | 71 | 1023.6 |
| 20260508170041 | 64 | 86 | 0.0 | 6.0 | 0.00 | 0.00 | 0.00 | 73 | 1023.5 |
| 20260508164542 | 63 | 86 | 1.0 | 4.0 | 0.00 | 0.00 | 0.00 | 75 | 1023.6 |
| 20260508163032 | 61 | 86 | 0.0 | 6.0 | 0.00 | 0.00 | 0.00 | 78 | 1023.6 |
| 20260508161530 | 61 | 86 | 1.0 | 4.0 | 0.00 | 0.00 | 0.00 | 78 | 1023.6 |
| 20260508160024 | 59 | 86 | 0.0 | 4.0 | 0.00 | 0.00 | 0.00 | 82 | 1023.6 |
| 20260508154519 | 58 | 86 | 0.0 | 4.0 | 0.00 | 0.00 | 0.00 | 84 | 1023.6 |
| 20260508153016 | 56 | 86 | 0.0 | 6.0 | 0.00 | 0.00 | 0.00 | 87 | 1023.6 |
| 20260508151514 | 55 | 86 | 0.0 | 3.0 | 0.00 | 0.00 | 0.00 | 89 | 1023.6 |
| 20260508150019 | 54 | 86 | 0.0 | 3.0 | 0.00 | 0.00 | 0.00 | 89 | 1023.5 |
| 20260508144524 | 54 | 86 | 0.0 | 4.0 | 0.00 | 0.00 | 0.00 | 89 | 1023.6 |
| 20260508143009 | 54 | 86 | 0.0 | 6.0 | 0.00 | 0.00 | 0.00 | 89 | 1023.3 |
| 20260508141505 | 53 | 86 | 1.0 | 6.0 | 0.00 | 0.00 | 0.00 | 90 | 1022.9 |
| 20260508140007 | 53 | 86 | 1.0 | 4.0 | 0.00 | 0.00 | 0.00 | 90 | 1022.9 |
| 20260508134602 | 53 | 86 | 1.0 | 4.0 | 0.00 | 0.00 | 0.00 | 90 | 1022.8 |
| 20260508133119 | 53 | 86 | 1.0 | 4.0 | 0.00 | 0.00 | 0.00 | 91 | 1022.5 |
| 20260508131555 | 53 | 86 | 1.0 | 4.0 | 0.00 | 0.00 | 0.00 | 90 | 1022.5 |
| 20260508130054 | 53 | 86 | 1.0 | 9.0 | 0.00 | 0.00 | 0.00 | 90 | 1022.5 |
| 20260508124552 | 53 | 85 | 2.0 | 8.0 | 0.00 | 0.00 | 0.00 | 90 | 1022.5 |
| 20260508123100 | 53 | 85 | 1.0 | 6.0 | 0.00 | 0.00 | 0.00 | 90 | 1022.5 |
| 20260508121549 | 54 | 85 | 0.0 | 4.0 | 0.00 | 0.00 | 0.00 | 89 | 1022.4 |
| 20260508120051 | 54 | 85 | 0.0 | 6.0 | 0.00 | 0.00 | 0.00 | 90 | 1022.4 |
| 20260508114545 | 54 | 85 | 0.0 | 4.0 | 0.00 | 0.00 | 0.00 | 90 | 1022.2 |
| 20260508113100 | 54 | 85 | 0.0 | 2.0 | 0.00 | 0.00 | 0.00 | 89 | 1022.1 |
| 20260508111546 | 54 | 85 | 0.0 | 3.0 | 0.00 | 0.00 | 0.00 | 89 | 1022.1 |
| 20260508110051 | 54 | 85 | 0.0 | 2.0 | 0.00 | 0.00 | 0.00 | 89 | 1022.1 |
| 20260508104541 | 55 | 85 | 1.0 | 6.0 | 0.00 | 0.00 | 0.00 | 89 | 1022.1 |
| 20260508103047 | 55 | 85 | 0.0 | 3.0 | 0.00 | 0.00 | 0.00 | 89 | 1022.1 |
| 20260508101541 | 55 | 85 | 0.0 | 2.0 | 0.00 | 0.00 | 0.00 | 89 | 1021.9 |
| 20260508100039 | 55 | 85 | 0.0 | 3.0 | 0.00 | 0.00 | 0.00 | 88 | 1022.1 |
| 20260508094537 | 55 | 85 | 1.0 | 3.0 | 0.00 | 0.00 | 0.00 | 88 | 1022.0 |
| 20260508093037 | 55 | 85 | 0.0 | 6.0 | 0.00 | 0.00 | 0.00 | 87 | 1021.8 |
| 20260508091538 | 55 | 85 | 0.0 | 4.0 | 0.00 | 0.00 | 0.00 | 87 | 1021.9 |
| 20260508090040 | 56 | 85 | 0.0 | 3.0 | 0.00 | 0.00 | 0.00 | 86 | 1021.8 |
| 20260508084532 | 56 | 85 | 0.0 | 4.0 | 0.00 | 0.00 | 0.00 | 86 | 1021.7 |
| 20260508083037 | 56 | 85 | 0.0 | 4.0 | 0.00 | 0.00 | 0.00 | 86 | 1021.8 |
| 20260508081529 | 56 | 85 | 1.0 | 6.0 | 0.00 | 0.00 | 0.00 | 86 | 1021.9 |
| 20260508080028 | 57 | 85 | 0.0 | 8.0 | 0.00 | 0.00 | 0.00 | 85 | 1021.9 |
| 20260508074535 | 57 | 84 | 1.0 | 6.0 | 0.00 | 0.00 | 0.00 | 85 | 1021.7 |
| 20260508073028 | 58 | 84 | 1.0 | 7.0 | 0.00 | 0.00 | 0.00 | 85 | 1021.8 |
| 20260508071522 | 58 | 84 | 1.0 | 6.0 | 0.00 | 0.00 | 0.00 | 84 | 1021.6 |
| 20260508070019 | 59 | 84 | 0.0 | 7.0 | 0.00 | 0.00 | 0.00 | 83 | 1021.5 |
| 20260508064517 | 59 | 84 | 1.0 | 7.0 | 0.00 | 0.00 | 0.00 | 82 | 1021.5 |
| 20260508063016 | 60 | 84 | 0.0 | 6.0 | 0.00 | 0.00 | 0.00 | 81 | 1021.5 |
| 20260508061518 | 60 | 84 | 0.0 | 2.0 | 0.00 | 0.00 | 0.00 | 80 | 1021.4 |
| 20260508060016 | 61 | 84 | 1.0 | 6.0 | 0.00 | 0.00 | 0.00 | 80 | 1021.3 |
| 20260508054517 | 61 | 84 | 0.0 | 3.0 | 0.00 | 0.00 | 0.00 | 78 | 1021.2 |
| 20260508053027 | 62 | 84 | 0.0 | 3.0 | 0.00 | 0.00 | 0.00 | 78 | 1021.2 |
| 20260508051513 | 63 | 84 | 0.0 | 2.0 | 0.00 | 0.00 | 0.00 | 77 | 1021.3 |
| 20260508050013 | 63 | 84 | 0.0 | 1.0 | 0.00 | 0.00 | 0.00 | 76 | 1021.2 |
| 20260508044513 | 64 | 84 | 0.0 | 2.0 | 0.00 | 0.00 | 0.00 | 76 | 1021.2 |
| 20260508043012 | 64 | 84 | 0.0 | 6.0 | 0.00 | 0.00 | 0.00 | 75 | 1021.0 |
| 20260508041518 | 65 | 84 | 0.0 | 4.0 | 0.00 | 0.00 | 0.00 | 73 | 1020.9 |
| 20260508040011 | 67 | 84 | 1.0 | 4.0 | 0.00 | 0.00 | 0.00 | 72 | 1020.8 |
| 20260508034511 | 68 | 84 | 1.0 | 4.0 | 0.00 | 0.00 | 0.00 | 70 | 1020.5 |
| 20260508033010 | 70 | 84 | 0.0 | 2.0 | 0.00 | 0.00 | 0.00 | 69 | 1020.4 |
| 20260508031510 | 71 | 84 | 1.0 | 4.0 | 0.00 | 0.00 | 0.00 | 65 | 1020.4 |
| 20260508030021 | 73 | 84 | 0.0 | 4.0 | 0.00 | 0.00 | 0.00 | 65 | 1020.2 |
| 20260508024510 | 75 | 84 | 2.0 | 6.0 | 0.00 | 0.00 | 0.00 | 64 | 1020.0 |
| 20260508023008 | 76 | 84 | 2.0 | 4.0 | 0.00 | 0.00 | 0.00 | 61 | 1019.9 |
| 20260508021512 | 77 | 84 | 0.0 | 6.0 | 0.00 | 0.00 | 0.00 | 61 | 1019.8 |
| 20260508020013 | 78 | 83 | 1.0 | 8.0 | 0.00 | 0.00 | 0.00 | 60 | 1019.9 |
| 20260508014507 | 80 | 82 | 1.0 | 6.0 | 0.00 | 0.00 | 0.00 | 57 | 1019.8 |
| 20260508013006 | 82 | 82 | 2.0 | 5.0 | 0.00 | 0.00 | 0.00 | 54 | 1019.9 |
| 20260508011512 | 82 | 82 | 0.0 | 4.0 | 0.00 | 0.00 | 0.00 | 52 | 1019.9 |
| 20260508010004 | 82 | 82 | 0.0 | 5.0 | 0.00 | 0.00 | 0.00 | 51 | 1020.0 |
| 20260508004503 | 83 | 82 | 1.0 | 5.0 | 0.00 | 0.00 | 0.00 | 50 | 1020.0 |
| 20260508003002 | 84 | 82 | 0.0 | 8.0 | 0.00 | 0.00 | 0.00 | 49 | 1020.1 |
| 20260508001501 | 85 | 80 | 0.0 | 4.0 | 0.00 | 0.00 | 0.00 | 47 | 1020.3 |
| 20260508000100 | 85 | 80 | 0.0 | 3.0 | 0.00 | 0.00 | 0.00 | 48 | 1020.3 |
| 20260507234559 | 85 | 80 | 1.0 | 4.0 | 0.00 | 0.00 | 0.00 | 48 | 1020.2 |
| 20260507233105 | 84 | 80 | 1.0 | 4.0 | 0.00 | 0.00 | 0.00 | 49 | 1020.3 |
| 20260507231556 | 85 | 80 | 1.0 | 4.0 | 0.00 | 0.00 | 0.00 | 48 | 1020.5 |
| 20260507230051 | 84 | 80 | 0.0 | 4.0 | 0.00 | 0.00 | 0.00 | 50 | 1020.8 |
| 20260507224555 | 83 | 79 | 1.0 | 9.0 | 0.00 | 0.00 | 0.00 | 51 | 1021.0 |
| 20260507223045 | 83 | 69 | 2.0 | 5.0 | 0.00 | 0.00 | 0.00 | 50 | 1021.1 |